EHI
0 0 0 0 0 0 0 0 0 0 0 0 0 0 0 0 0 0 0 1 3 6 12 20 25 26 23 19 17 14 14 16 16 15 14 11 9 6 4 3 3 3 3 4 3 2 0 0 0
0 0 0 0 0 0 0 0 0 0 0 0 0 0 0 0 0 0 1 1 4 8 12 18 25 26 23 19 15 12 12 14 15 15 14 13 10 6 3 3 3 3 3 4 4 3 1 0 0
0 0 0 0 0 0 0 0 0 0 0 0 0 0 0 0 0 1 2 3 6 9 12 17 24 25 22 19 14 11 10 11 13 14 14 13 10 6 3 3 3 3 4 4 5 3 1 0 0
0 0 0 0 0 0 0 0 0 0 0 0 0 0 0 0 1 2 3 4 7 10 14 18 22 23 20 18 14 10 8 9 11 12 12 11 8 5 3 3 3 4 5 5 4 2 1 0 0
0 0 0 0 0 0 0 0 0 0 0 0 0 0 0 0 1 3 4 5 7 11 15 19 22 21 19 17 15 12 9 9 9 10 10 9 7 4 3 3 3 4 4 4 2 1 0 0 0
0 0 0 0 0 0 0 0 0 0 0 0 0 0 0 0 1 3 5 6 7 10 14 17 19 20 18 16 15 15 12 9 8 8 9 8 6 4 3 3 3 3 3 2 1 0 0 0 0
0 0 0 0 0 0 0 0 0 0 0 0 0 0 0 1 2 3 5 7 9 10 13 14 16 16 16 14 14 15 13 9 7 7 8 7 6 4 3 3 3 3 3 2 1 0 0 0 0
0 0 0 0 0 0 0 0 0 0 0 0 0 0 0 1 3 4 5 7 9 11 13 13 13 12 10 10 10 11 10 8 6 7 7 6 5 4 3 3 3 3 3 1 0 0 0 0 0
0 0 0 0 0 0 0 0 0 0 0 0 0 0 0 1 3 5 4 5 7 9 10 11 10 9 7 6 6 7 8 7 6 6 5 4 4 3 3 3 3 4 3 1 0 0 0 0 0
0 0 0 0 0 0 0 0 0 0 0 0 0 0 0 1 4 5 4 4 5 7 7 6 6 6 6 5 5 5 6 6 5 5 4 3 3 3 3 3 3 3 2 1 0 1 0 0 0
0 0 0 0 0 0 0 0 0 0 0 0 0 0 0 1 4 5 4 3 4 5 5 4 4 4 5 4 4 5 6 6 4 3 3 3 3 3 3 3 3 2 1 0 0 0 0 0 0
0 0 0 0 0 0 0 0 0 0 0 0 0 0 0 0 2 4 4 2 1 3 4 4 4 3 4 3 3 4 5 5 3 2 2 3 3 3 3 3 3 3 1 1 1 0 0 0 0
0 0 0 0 0 0 0 0 0 0 0 0 0 0 0 0 0 2 2 1 0 1 2 3 3 3 3 3 3 3 4 3 3 2 2 2 3 3 3 3 3 3 2 2 2 1 0 0 0
0 0 0 0 0 0 0 0 0 0 0 0 0 0 0 0 0 1 1 1 0 0 1 1 2 3 2 2 2 3 2 2 2 2 1 1 1 3 3 3 3 3 3 3 2 1 0 0 0
0 0 0 0 0 0 0 0 0 0 0 0 0 0 0 0 0 0 0 0 0 0 0 0 1 2 1 0 1 1 1 1 1 1 1 0 1 2 3 3 3 3 3 3 1 0 0 0 0
0 0 0 0 0 0 0 0 0 0 0 0 0 0 0 0 0 0 0 0 0 0 0 0 0 0 0 0 0 0 0 0 0 0 0 0 0 1 2 3 3 3 3 2 1 0 0 0 0
0 0 0 0 0 0 0 0 0 0 0 0 0 0 0 0 0 0 0 0 0 0 0 0 0 0 0 0 0 0 0 0 0 0 0 0 0 0 1 2 3 3 3 2 1 0 0 0 0
0 0 0 0 0 0 0 0 0 0 0 0 0 0 0 0 0 0 0 0 0 0 0 0 0 0 0 0 0 0 0 0 0 0 0 0 0 0 0 1 2 3 3 3 1 0 0 0 0
0 0 0 0 0 0 0 0 0 0 0 0 0 0 0 0 0 0 0 0 0 0 0 0 0 0 0 0 0 0 0 0 0 0 0 0 0 0 0 0 1 2 3 3 2 1 0 0 0
0 0 0 0 0 0 0 0 0 0 0 0 0 0 0 0 0 0 0 0 0 0 0 0 0 0 0 0 0 0 0 1 0 0 0 0 0 0 0 0 0 1 2 3 2 1 0 0 0
0 0 0 0 0 0 0 0 0 0 0 0 0 0 0 0 0 0 0 0 0 0 0 0 0 0 0 0 0 0 0 0 0 0 0 0 0 0 0 0 0 0 1 2 1 0 0 0 0
0 0 0 0 0 0 0 0 0 0 0 0 0 0 0 0 0 0 0 0 0 0 0 0 0 0 0 0 0 0 0 0 0 0 0 0 0 0 0 0 0 0 0 0 0 0 0 0 0
0 0 0 0 0 0 0 0 0 0 0 0 0 0 0 0 0 0 0 0 0 0 0 0 0 0 0 0 0 0 0 0 0 0 0 0 0 0 0 0 0 0 0 0 0 0 0 0 0
0 0 0 0 0 0 0 0 0 0 0 0 0 0 0 0 0 0 0 0 0 0 0 0 0 0 0 0 0 0 0 0 0 0 0 0 0 0 0 0 0 0 0 0 0 0 0 0 0
0 0 0 0 0 0 0 0 0 0 0 0 0 0 0 0 0 0 0 0 0 0 0 0 0 0 0 0 0 0 0 0 0 0 0 0 0 0 0 0 0 0 0 0 0 0 0 0 0
0 0 0 0 0 0 0 0 0 0 0 0 0 0 0 0 0 0 0 0 0 0 0 0 0 0 0 0 0 0 0 0 0 0 0 0 0 0 0 0 0 0 0 0 0 0 0 0 0
0 0 0 0 0 0 0 0 0 0 0 0 0 0 0 0 0 0 0 0 0 0 0 0 0 0 0 0 0 0 0 0 0 0 0 0 0 0 0 0 0 0 0 0 0 0 0 0 0
0 0 0 0 0 0 0 0 0 0 0 0 0 0 0 0 0 0 0 0 0 0 0 0 0 0 0 0 0 0 0 0 0 0 0 0 0 0 0 0 0 0 0 0 0 0 0 0 0
0 0 0 0 0 0 0 0 0 0 0 0 0 0 0 0 0 0 0 0 0 0 0 0 0 0 0 0 0 0 0 0 0 0 0 0 0 0 0 0 0 0 0 0 0 0 0 0 0
0 0 0 0 0 0 0 0 0 0 0 0 0 0 0 0 0 0 0 0 0 0 0 0 0 0 0 0 0 0 0 0 0 0 0 0 0 0 0 0 0 0 0 0 0 0 0 0 0
Wind_Speed
7 4 2 4 5 3 3 5 3 1 1 1 1 3 4 3 2 3 1 2 4 4 4 6 7 7 7 7 7 7 7 7 7 7 7 7 7 7 7 8 8 7 7 8 8 8 8 7 7
3 2 4 5 4 2 5 4 3 3 3 0 2 2 3 3 2 4 1 2 4 4 3 5 6 7 7 7 7 6 6 6 6 6 6 7 7 7 7 7 7 7 7 7 7 7 7 7 7
3 2 4 4 4 6 5 4 5 3 1 1 2 2 2 2 2 2 1 3 4 4 2 4 6 6 7 7 6 6 5 5 5 6 6 6 6 6 6 6 6 6 6 6 6 6 6 6 6
3 4 4 3 4 5 4 3 2 1 2 2 2 2 2 2 1 1 3 5 6 4 2 3 5 6 6 6 6 6 5 5 5 5 5 5 6 5 5 5 5 5 6 6 6 5 5 5 6
4 4 3 1 4 4 2 2 1 1 1 2 2 2 1 4 3 4 5 5 6 4 3 3 5 5 5 5 5 5 5 4 4 5 5 4 5 5 5 5 4 5 5 5 5 5 4 4 5
4 4 3 3 5 3 2 2 0 1 1 2 2 2 0 2 4 3 4 5 4 4 3 3 4 4 4 4 4 4 4 4 4 4 4 4 4 4 4 5 4 4 4 5 5 5 4 4 4
4 4 4 4 3 3 2 1 1 1 1 1 1 3 1 2 2 3 4 5 4 4 4 3 3 3 3 2 3 3 3 3 3 3 3 3 3 3 3 4 4 4 4 4 4 4 4 4 3
4 4 2 2 3 3 1 1 1 1 0 1 2 4 2 2 1 3 5 5 4 4 3 3 3 3 3 2 2 2 2 2 2 2 2 2 2 2 3 4 4 4 4 4 4 4 4 3 2
3 4 3 3 3 2 1 2 2 2 2 2 2 1 1 1 2 4 4 5 4 4 3 3 3 3 2 2 2 2 1 1 1 1 1 1 1 1 1 2 3 4 4 4 4 4 4 3 2
4 3 4 2 2 1 1 2 1 2 2 2 3 3 2 2 3 4 3 3 3 2 2 2 2 2 2 2 1 1 0 1 1 1 1 1 1 1 1 1 2 3 3 3 3 3 3 2 1
3 4 2 0 0 0 1 3 2 1 2 3 3 1 0 1 2 3 2 2 1 1 1 2 2 1 1 1 1 1 1 0 0 1 1 1 1 0 1 0 1 2 2 2 2 2 1 1 1
2 1 2 1 1 1 1 2 2 2 5 4 4 3 2 1 1 2 2 1 0 1 1 1 1 1 1 1 0 0 0 0 0 1 1 1 1 1 1 0 1 1 1 1 1 1 2 2 2
1 1 1 1 1 1 0 1 2 4 4 2 2 2 2 1 1 1 2 1 1 0 1 1 1 1 1 0 0 1 0 0 1 1 1 1 1 1 1 1 1 1 1 1 1 1 2 2 3
2 1 2 3 3 2 0 3 2 6 3 2 2 2 2 2 2 1 1 1 1 1 1 1 0 0 1 1 0 0 1 1 1 1 1 1 2 2 2 2 2 1 2 2 2 2 2 2 2
1 1 3 3 3 2 0 4 5 7 3 3 3 2 2 1 2 2 2 2 2 1 1 1 1 0 0 1 1 1 1 1 1 1 1 2 2 2 2 2 2 2 2 2 2 2 1 1 1
1 1 2 4 2 2 3 7 6 4 4 5 4 3 2 2 3 3 2 1 1 1 1 1 1 0 1 1 1 1 1 1 1 1 1 2 2 2 2 2 3 2 2 2 2 2 1 1 1
1 2 4 5 2 1 3 7 7 3 4 5 5 4 3 3 3 2 1 1 1 1 1 1 1 1 1 1 1 1 1 1 1 1 1 2 2 2 3 3 2 2 2 2 3 2 2 2 2
4 3 4 5 2 1 4 8 8 4 4 6 5 4 4 4 4 3 1 1 1 1 1 2 2 1 1 1 1 1 1 1 1 1 2 2 2 2 2 2 3 3 2 2 2 2 2 2 2
3 3 5 6 3 2 6 9 9 6 4 4 5 4 5 5 4 2 2 1 1 0 1 2 1 2 1 0 0 1 1 1 1 2 2 2 2 2 2 2 2 3 3 3 3 2 2 1 1
4 4 5 5 2 2 5 9 8 5 5 6 6 5 5 4 2 2 2 1 1 1 1 2 2 2 2 1 1 1 2 2 2 2 2 2 2 2 2 2 3 3 3 3 3 2 1 1 2
4 5 5 4 4 2 2 7 5 5 4 3 4 4 4 4 4 3 2 2 2 2 3 3 3 3 3 2 1 0 1 1 1 2 2 2 2 3 3 2 3 3 3 3 3 4 3 2 2
5 4 4 2 1 3 0 5 7 4 3 3 4 3 3 3 4 3 3 3 3 4 3 3 3 3 3 2 1 2 2 2 3 2 2 3 3 3 3 2 2 2 2 3 3 3 3 4 3
4 2 1 2 1 2 2 3 8 2 4 6 5 5 4 3 3 4 3 4 4 4 3 3 3 3 3 2 2 2 3 3 2 2 2 3 2 3 3 2 2 2 2 3 3 2 3 3 4
2 2 3 3 2 3 5 4 8 4 6 4 4 4 3 3 3 3 3 2 3 3 3 3 3 3 3 3 3 3 4 3 3 3 3 2 2 2 2 2 2 2 3 3 3 3 4 3 3
2 4 3 4 2 6 3 3 9 5 4 4 5 4 3 3 2 2 3 3 4 4 4 3 3 3 3 3 4 4 4 4 4 3 3 2 2 2 2 2 2 2 2 3 3 3 3 3 4
3 5 5 4 4 5 2 6 8 3 2 1 2 3 1 2 2 2 3 4 4 4 4 3 3 4 4 4 4 4 3 3 3 3 3 3 2 2 2 3 2 2 3 2 2 2 3 3 3
3 3 3 3 1 3 5 6 7 2 2 2 2 1 1 2 3 3 3 3 4 4 4 4 4 4 4 4 4 4 4 3 3 3 3 2 2 2 2 2 2 2 2 2 2 2 2 2 2
2 4 3 3 2 4 5 5 5 4 3 2 2 2 3 3 4 4 3 4 4 4 4 4 4 4 4 4 4 3 4 4 3 3 3 3 3 2 2 2 2 2 2 2 2 2 2 2 2
2 2 2 2 3 3 4 7 4 4 3 3 3 3 3 3 3 3 4 4 4 4 4 4 4 4 4 4 4 4 4 3 3 3 3 3 3 3 3 3 2 2 2 2 2 2 1 1 1
3 4 4 3 3 3 3 8 3 1 1 1 2 3 3 3 3 3 4 5 4 5 4 4 4 4 5 4 4 4 4 3 3 3 3 3 3 3 3 3 2 2 2 2 2 2 1 1 1
Wind_Direction
335 340 49 57 61 64 229 244 234 259 284 291 43 98 116 123 137 160 186 113 111 137 151 145 130 123 118 114 114 112 107 107 107 108 110 109 108 111 115 117 116 114 111 108 110 108 105 104 102
342 356 57 64 105 180 248 243 234 232 208 157 27 68 72 69 68 108 119 108 117 129 146 148 131 124 118 115 111 115 113 110 111 109 107 109 108 111 115 117 118 118 116 113 110 111 112 112 110
341 49 85 89 147 192 220 234 223 248 282 50 38 31 82 102 110 137 177 133 106 108 130 149 129 127 121 117 112 112 119 115 112 114 112 111 108 112 116 114 115 116 117 117 114 112 119 120 119
55 51 60 97 206 225 213 226 225 278 340 21 100 39 38 21 132 162 127 113 103 95 99 129 123 123 122 119 115 112 112 117 109 107 114 115 115 115 114 112 114 115 114 115 117 120 119 128 127
64 83 91 184 232 246 241 257 269 286 328 8 74 88 32 351 34 81 93 102 108 101 88 110 116 119 116 118 121 120 114 116 120 110 106 114 117 113 117 118 119 120 121 122 123 122 124 127 134
66 81 121 206 228 246 263 279 308 3 9 11 64 101 110 340 51 59 70 81 97 107 90 78 83 100 107 114 128 126 121 122 121 121 112 114 115 114 130 133 130 131 133 130 128 129 128 127 126
111 118 174 198 213 236 262 328 120 132 36 328 98 111 163 335 22 62 70 75 79 88 86 70 65 63 69 96 119 126 122 119 115 117 126 124 125 129 143 141 143 145 142 139 138 134 126 125 116
124 118 172 211 207 229 298 40 34 76 219 328 88 138 194 257 349 68 69 67 74 76 81 74 64 62 54 43 67 98 107 110 99 87 102 101 115 133 154 155 160 156 152 145 148 143 137 132 128
89 95 194 215 203 227 346 54 357 1 58 9 23 134 186 142 67 68 63 58 63 57 55 64 58 54 49 48 41 51 86 91 86 87 64 97 144 155 166 179 171 168 165 162 162 163 153 141 151
98 155 214 216 193 194 352 13 336 22 17 359 3 11 34 82 85 87 84 76 70 57 38 44 53 52 49 42 46 28 7 178 151 121 121 125 115 162 125 192 177 175 177 179 180 183 168 153 179
142 179 205 270 283 83 352 330 339 134 260 231 219 229 4 92 109 109 107 111 131 125 51 34 39 53 69 56 46 14 6 344 171 149 143 132 115 122 86 167 193 181 181 183 194 190 190 202 212
133 210 204 252 337 359 276 289 328 264 246 229 200 182 162 123 176 161 158 155 122 35 34 27 21 24 26 49 64 60 21 6 334 263 177 156 157 166 166 177 210 187 186 189 192 196 218 229 230
176 230 249 261 327 310 19 278 270 273 262 245 185 167 169 164 274 201 176 163 139 28 335 341 350 11 4 11 3 61 50 301 288 283 244 206 194 194 191 195 198 207 189 187 194 208 224 232 234
165 182 270 282 278 277 217 286 270 258 236 213 195 198 193 180 240 222 180 187 204 226 258 283 316 17 19 358 292 205 203 222 253 257 258 235 218 202 197 196 198 212 208 203 200 208 221 240 238
104 16 320 279 248 238 183 303 248 243 208 205 223 219 206 217 245 210 210 206 211 217 223 260 253 78 44 311 266 245 223 211 219 260 261 252 239 217 205 201 204 212 214 205 202 212 213 234 257
35 25 278 275 216 214 157 259 262 239 195 215 229 229 221 244 250 221 209 208 205 197 220 259 308 356 248 254 264 239 238 227 222 241 257 263 257 230 210 210 220 216 204 199 198 200 212 238 248
16 239 246 273 232 194 192 253 269 245 207 226 227 222 221 246 263 235 206 187 187 200 217 241 241 224 241 248 264 268 248 243 245 244 248 256 262 242 217 214 227 216 202 205 209 205 202 227 245
214 230 250 254 260 198 243 259 273 269 232 236 235 225 225 228 241 220 208 205 203 222 242 240 232 234 239 248 293 305 300 279 271 258 257 255 257 257 236 223 215 207 201 211 213 210 213 215 224
205 223 257 265 273 251 247 263 271 266 252 248 238 221 219 230 242 197 193 195 187 275 293 266 251 257 234 243 264 286 282 278 279 266 262 256 253 252 239 251 224 211 205 210 213 207 201 217 191
219 237 266 283 279 254 267 274 270 253 238 229 219 217 215 221 246 222 220 222 231 246 275 283 266 261 249 236 223 222 240 248 249 260 269 256 250 256 257 242 237 225 213 208 206 190 194 235 198
236 222 236 259 315 303 289 290 267 266 248 239 223 212 209 209 222 227 233 237 240 252 253 267 262 262 257 245 224 262 291 302 306 289 269 268 256 253 248 240 241 234 217 213 212 200 199 214 239
251 242 236 252 299 283 197 283 279 265 276 261 243 224 217 226 227 223 231 242 240 243 249 249 252 256 258 247 220 219 234 258 264 259 262 273 257 251 249 238 240 236 236 225 218 209 222 201 218
222 246 243 242 208 291 253 231 282 285 269 267 250 236 226 227 217 218 234 240 247 245 249 249 247 253 257 254 237 228 245 251 261 262 258 261 264 258 261 250 235 234 237 234 227 225 225 215 217
182 41 28 32 67 270 230 191 275 239 237 259 257 246 228 232 232 236 255 270 271 264 261 256 248 256 253 250 245 233 235 242 253 272 266 272 283 281 276 275 249 240 234 232 224 222 224 227 225
92 94 24 351 343 253 227 201 251 251 244 228 230 225 223 233 239 260 283 289 288 284 275 260 247 262 257 246 247 245 240 235 233 242 250 260 269 278 274 274 269 262 255 243 226 221 229 225 221
186 152 168 206 233 278 271 235 256 272 276 253 187 173 190 264 272 271 272 275 280 282 275 256 247 253 254 246 248 248 241 238 243 235 232 238 242 250 256 263 265 272 267 260 233 220 231 227 227
153 190 185 150 206 274 267 276 293 296 356 13 25 25 306 290 292 293 298 294 287 284 275 253 250 256 256 252 252 251 243 236 246 246 232 234 242 254 254 254 249 259 261 255 243 230 232 231 234
168 154 120 151 177 266 285 269 257 266 278 298 305 299 294 298 304 307 308 306 299 287 280 267 253 248 250 253 253 256 249 238 234 239 240 245 245 246 253 254 238 247 255 253 250 245 236 229 240
166 160 159 153 170 182 267 269 241 228 228 233 258 275 284 292 299 308 314 311 309 306 294 283 273 268 265 258 251 248 249 244 238 238 237 238 238 243 247 238 231 243 255 255 247 250 237 223 249
202 188 162 170 227 197 220 270 295 267 290 275 285 295 301 298 296 298 304 313 320 317 303 290 282 279 271 257 251 245 245 241 240 241 241 236 239 246 238 238 233 247 253 248 239 239 239 220 232